| time (UTC) | temp C | wind direction | speed KPH | gust KPH | rain 1hr cm | rain 24hr cm | rain mn cm | humidity % | barometer mb |
| 20260502210516 | 31 | 62 | 3.2 | 115.9 | 0.00 | 0.00 | 0.00 | 12 | 1014.0 |
| 20260502210031 | 31 | 276 | 3.2 | 14.5 | 0.00 | 0.00 | 0.00 | 11 | 1014.0 |
| 20260502205527 | 32 | 244 | 3.2 | 14.5 | 0.00 | 0.00 | 0.00 | 11 | 1014.1 |
| 20260502205023 | 32 | 275 | 4.8 | 12.9 | 0.00 | 0.00 | 0.00 | 11 | 1014.2 |
| 20260502204518 | 32 | 288 | 8.0 | 12.9 | 0.00 | 0.00 | 0.00 | 12 | 1014.5 |
| 20260502204018 | 30 | 113 | 6.4 | 12.9 | 0.00 | 0.00 | 0.00 | 12 | 1014.5 |
| 20260502203514 | 30 | 118 | 4.8 | 14.5 | 0.00 | 0.00 | 0.00 | 12 | 1014.6 |
| 20260502203030 | 30 | 90 | 3.2 | 17.7 | 0.00 | 0.00 | 0.00 | 11 | 1014.8 |
| 20260502202525 | 31 | 63 | 3.2 | 17.7 | 0.00 | 0.00 | 0.00 | 11 | 1014.8 |
| 20260502202021 | 30 | 65 | 4.8 | 14.5 | 0.00 | 0.00 | 0.00 | 12 | 1014.7 |
| 20260502201517 | 31 | 108 | 6.4 | 14.5 | 0.00 | 0.00 | 0.00 | 14 | 1014.9 |
| 20260502201013 | 30 | 92 | 6.4 | 17.7 | 0.00 | 0.00 | 0.00 | 12 | 1015.0 |
| 20260502200533 | 31 | 114 | 8.0 | 17.7 | 0.00 | 0.00 | 0.00 | 12 | 1015.0 |
| 20260502200028 | 30 | 247 | 9.7 | 17.7 | 0.00 | 0.00 | 0.00 | 14 | 1015.0 |
| 20260502195524 | 30 | 127 | 1.6 | 20.9 | 0.00 | 0.00 | 0.00 | 15 | 1015.2 |
| 20260502195019 | 30 | 141 | 12.9 | 24.1 | 0.00 | 0.00 | 0.00 | 15 | 1015.2 |
| 20260502194515 | 30 | 117 | 9.7 | 24.1 | 0.00 | 0.00 | 0.00 | 16 | 1015.2 |
| 20260502194032 | 29 | 212 | 6.4 | 20.9 | 0.00 | 0.00 | 0.00 | 16 | 1015.3 |
| 20260502193528 | 28 | 107 | 11.3 | 20.9 | 0.00 | 0.00 | 0.00 | 17 | 1015.5 |
| 20260502193027 | 30 | 206 | 3.2 | 19.3 | 0.00 | 0.00 | 0.00 | 16 | 1015.4 |
| 20260502192524 | 29 | 140 | 6.4 | 19.3 | 0.00 | 0.00 | 0.00 | 18 | 1015.3 |
| 20260502192021 | 29 | 191 | 6.4 | 22.5 | 0.00 | 0.00 | 0.00 | 18 | 1015.5 |
| 20260502191517 | 28 | 174 | 8.0 | 24.1 | 0.00 | 0.00 | 0.00 | 19 | 1015.5 |
| 20260502191013 | 28 | 135 | 6.4 | 24.1 | 0.00 | 0.00 | 0.00 | 20 | 1015.5 |
| 20260502190529 | 28 | 94 | 9.7 | 20.9 | 0.00 | 0.00 | 0.00 | 21 | 1015.6 |
| 20260502190025 | 28 | 97 | 8.0 | 20.9 | 0.00 | 0.00 | 0.00 | 21 | 1015.7 |
| 20260502185525 | 28 | 155 | 6.4 | 20.9 | 0.00 | 0.00 | 0.00 | 22 | 1015.9 |
| 20260502185020 | 28 | 123 | 9.7 | 20.9 | 0.00 | 0.00 | 0.00 | 22 | 1015.9 |
| 20260502184517 | 28 | 125 | 3.2 | 25.7 | 0.00 | 0.00 | 0.00 | 20 | 1015.9 |
| 20260502184014 | 27 | 147 | 14.5 | 22.5 | 0.00 | 0.00 | 0.00 | 21 | 1016.0 |
| 20260502183531 | 28 | 106 | 11.3 | 20.9 | 0.00 | 0.00 | 0.00 | 23 | 1016.1 |
| 20260502183027 | 28 | 131 | 11.3 | 25.7 | 0.00 | 0.00 | 0.00 | 23 | 1016.2 |
| 20260502182522 | 28 | 135 | 12.9 | 25.7 | 0.00 | 0.00 | 0.00 | 24 | 1016.4 |
| 20260502182023 | 28 | 102 | 8.0 | 24.1 | 0.00 | 0.00 | 0.00 | 24 | 1016.4 |
| 20260502181519 | 27 | 87 | 8.0 | 24.1 | 0.00 | 0.00 | 0.00 | 26 | 1016.4 |
| 20260502181015 | 27 | 131 | 14.5 | 24.1 | 0.00 | 0.00 | 0.00 | 26 | 1016.4 |
| 20260502180532 | 27 | 103 | 12.9 | 29.0 | 0.00 | 0.00 | 0.00 | 26 | 1016.6 |
| 20260502164027 | 26 | 81 | 11.3 | 20.9 | 0.00 | 0.00 | 0.00 | 30 | 1016.8 |
| 20260502163522 | 26 | 83 | 11.3 | 20.9 | 0.00 | 0.00 | 0.00 | 30 | 1016.9 |
| 20260502163018 | 25 | 123 | 14.5 | 27.4 | 0.00 | 0.00 | 0.00 | 31 | 1016.9 |
| 20260502162518 | 25 | 98 | 11.3 | 27.4 | 0.00 | 0.00 | 0.00 | 31 | 1016.9 |
| 20260502162014 | 25 | 111 | 14.5 | 29.0 | 0.00 | 0.00 | 0.00 | 32 | 1016.9 |
| 20260502161529 | 25 | 59 | 12.9 | 29.0 | 0.00 | 0.00 | 0.00 | 33 | 1016.9 |
| 20260502161025 | 25 | 88 | 12.9 | 24.1 | 0.00 | 0.00 | 0.00 | 33 | 1016.8 |
| 20260502160521 | 24 | 101 | 16.1 | 25.7 | 0.00 | 0.00 | 0.00 | 33 | 1016.8 |
| 20260502151526 | 23 | 131 | 19.3 | 30.6 | 0.00 | 0.00 | 0.00 | 36 | 1016.7 |
| 20260502151021 | 23 | 71 | 14.5 | 30.6 | 0.00 | 0.00 | 0.00 | 36 | 1016.7 |
| 20260502150517 | 22 | 110 | 17.7 | 30.6 | 0.00 | 0.00 | 0.00 | 36 | 1016.7 |
| 20260502130526 | 18 | 203 | 6.4 | 16.1 | 0.00 | 0.00 | 0.00 | 43 | 1015.1 |
| 20260502123523 | 17 | 217 | 6.4 | 11.3 | 0.00 | 0.00 | 0.00 | 40 | 1014.6 |
| 20260502123019 | 16 | 214 | 6.4 | 9.7 | 0.00 | 0.00 | 0.00 | 39 | 1014.7 |
| 20260502122515 | 16 | 209 | 3.2 | 8.0 | 0.00 | 0.00 | 0.00 | 38 | 1014.7 |
| 20260502122030 | 16 | 209 | 4.8 | 8.0 | 0.00 | 0.00 | 0.00 | 37 | 1014.7 |
| 20260502121530 | 16 | 209 | 3.2 | 8.0 | 0.00 | 0.00 | 0.00 | 37 | 1014.7 |
| 20260502121026 | 17 | 209 | 3.2 | 8.0 | 0.00 | 0.00 | 0.00 | 36 | 1014.7 |
| 20260502120522 | 17 | 249 | 3.2 | 11.3 | 0.00 | 0.00 | 0.00 | 36 | 1014.7 |
| 20260502115532 | 17 | 254 | 3.2 | 6.4 | 0.00 | 0.00 | 0.00 | 36 | 1014.5 |
| 20260502115025 | 17 | 254 | 1.6 | 6.4 | 0.00 | 0.00 | 0.00 | 35 | 1014.5 |
| 20260502114521 | 16 | 256 | 3.2 | 6.4 | 0.00 | 0.00 | 0.00 | 36 | 1014.5 |
| 20260502114020 | 16 | 256 | 1.6 | 4.8 | 0.00 | 0.00 | 0.00 | 37 | 1014.5 |
| 20260502113516 | 16 | 256 | 3.2 | 6.4 | 0.00 | 0.00 | 0.00 | 37 | 1014.3 |
| 20260502113013 | 16 | 256 | 3.2 | 9.7 | 0.00 | 0.00 | 0.00 | 37 | 1014.3 |
| 20260502112529 | 16 | 256 | 4.8 | 11.3 | 0.00 | 0.00 | 0.00 | 36 | 1014.3 |
| 20260502112024 | 16 | 257 | 6.4 | 11.3 | 0.00 | 0.00 | 0.00 | 35 | 1014.4 |
| 20260502111520 | 16 | 305 | 3.2 | 8.0 | 0.00 | 0.00 | 0.00 | 35 | 1014.4 |
| 20260502111016 | 16 | 308 | 1.6 | 6.4 | 0.00 | 0.00 | 0.00 | 35 | 1014.4 |
| 20260502110516 | 16 | 308 | 1.6 | 3.2 | 0.00 | 0.00 | 0.00 | 35 | 1014.5 |
| 20260502110030 | 16 | 308 | 1.6 | 3.2 | 0.00 | 0.00 | 0.00 | 34 | 1014.5 |
| 20260502105526 | 16 | 308 | 1.6 | 3.2 | 0.00 | 0.00 | 0.00 | 34 | 1014.7 |
| 20260502105022 | 16 | 308 | 1.6 | 4.8 | 0.00 | 0.00 | 0.00 | 35 | 1014.5 |
| 20260502104517 | 15 | 308 | 1.6 | 4.8 | 0.00 | 0.00 | 0.00 | 35 | 1014.7 |
| 20260502104013 | 15 | 308 | 3.2 | 6.4 | 0.00 | 0.00 | 0.00 | 35 | 1014.7 |
| 20260502103529 | 15 | 308 | 3.2 | 6.4 | 0.00 | 0.00 | 0.00 | 36 | 1014.6 |
| 20260502103025 | 15 | 308 | 3.2 | 6.4 | 0.00 | 0.00 | 0.00 | 36 | 1014.6 |
| 20260502102525 | 15 | 308 | 3.2 | 6.4 | 0.00 | 0.00 | 0.00 | 36 | 1014.6 |
| 20260502102020 | 16 | 308 | 3.2 | 6.4 | 0.00 | 0.00 | 0.00 | 35 | 1014.5 |
| 20260502101517 | 16 | 309 | 0.0 | 8.0 | 0.00 | 0.00 | 0.00 | 35 | 1014.5 |
| 20260502101013 | 16 | 309 | 3.2 | 8.0 | 0.00 | 0.00 | 0.00 | 35 | 1014.3 |
| 20260502100528 | 16 | 267 | 1.6 | 6.4 | 0.00 | 0.00 | 0.00 | 35 | 1014.3 |
| 20260502091515 | 17 | 281 | 0.0 | 3.2 | 0.00 | 0.00 | 0.00 | 33 | 1014.0 |
| 20260502091030 | 17 | 281 | 1.6 | 3.2 | 0.00 | 0.00 | 0.00 | 32 | 1014.0 |
| 20260502090526 | 17 | 281 | 0.0 | 4.8 | 0.00 | 0.00 | 0.00 | 32 | 1014.0 |
| 20260502071523 | 20 | 281 | 3.2 | 4.8 | 0.00 | 0.00 | 0.00 | 26 | 1014.1 |
| 20260502071019 | 20 | 281 | 3.2 | 4.8 | 0.00 | 0.00 | 0.00 | 26 | 1014.1 |
| 20260502070514 | 20 | 281 | 3.2 | 6.4 | 0.00 | 0.00 | 0.00 | 26 | 1014.1 |
| 20260502070029 | 20 | 281 | 4.8 | 6.4 | 0.00 | 0.00 | 0.00 | 27 | 1014.2 |
| 20260502065525 | 20 | 281 | 4.8 | 6.4 | 0.00 | 0.00 | 0.00 | 27 | 1014.3 |
| 20260502065025 | 20 | 281 | 4.8 | 6.4 | 0.00 | 0.00 | 0.00 | 27 | 1014.3 |
| 20260502064521 | 20 | 282 | 3.2 | 4.8 | 0.00 | 0.00 | 0.00 | 28 | 1014.2 |
| 20260502064017 | 20 | 282 | 3.2 | 4.8 | 0.00 | 0.00 | 0.00 | 27 | 1014.3 |
| 20260502063513 | 20 | 282 | 3.2 | 4.8 | 0.00 | 0.00 | 0.00 | 27 | 1014.2 |
| 20260502063029 | 20 | 282 | 3.2 | 4.8 | 0.00 | 0.00 | 0.00 | 26 | 1014.1 |
| 20260502062525 | 20 | 282 | 3.2 | 4.8 | 0.00 | 0.00 | 0.00 | 26 | 1014.1 |
| 20260502062020 | 21 | 282 | 3.2 | 6.4 | 0.00 | 0.00 | 0.00 | 26 | 1014.0 |
| 20260502061016 | 21 | 282 | 3.2 | 9.7 | 0.00 | 0.00 | 0.00 | 25 | 1013.9 |
| 20260502060532 | 21 | 283 | 4.8 | 9.7 | 0.00 | 0.00 | 0.00 | 25 | 1014.0 |
| 20260502060027 | 21 | 283 | 4.8 | 6.4 | 0.00 | 0.00 | 0.00 | 26 | 1013.9 |
| 20260502055523 | 21 | 284 | 3.2 | 4.8 | 0.00 | 0.00 | 0.00 | 26 | 1013.9 |
| 20260502055019 | 21 | 284 | 3.2 | 4.8 | 0.00 | 0.00 | 0.00 | 26 | 1013.8 |
| 20260502054514 | 21 | 284 | 3.2 | 4.8 | 0.00 | 0.00 | 0.00 | 26 | 1013.8 |
| 20260502054014 | 21 | 284 | 3.2 | 4.8 | 0.00 | 0.00 | 0.00 | 26 | 1013.8 |
| 20260502053530 | 21 | 284 | 3.2 | 4.8 | 0.00 | 0.00 | 0.00 | 26 | 1013.8 |
| 20260502053026 | 21 | 284 | 3.2 | 4.8 | 0.00 | 0.00 | 0.00 | 26 | 1013.9 |
| 20260502052521 | 21 | 284 | 3.2 | 4.8 | 0.00 | 0.00 | 0.00 | 25 | 1013.8 |
| 20260502052017 | 22 | 284 | 3.2 | 4.8 | 0.00 | 0.00 | 0.00 | 25 | 1013.8 |
| 20260502051513 | 22 | 284 | 3.2 | 4.8 | 0.00 | 0.00 | 0.00 | 25 | 1013.8 |
| 20260502051029 | 22 | 284 | 3.2 | 4.8 | 0.00 | 0.00 | 0.00 | 24 | 1013.7 |
| 20260502050528 | 22 | 284 | 0.0 | 3.2 | 0.00 | 0.00 | 0.00 | 25 | 1013.7 |
| 20260502050023 | 22 | 284 | 1.6 | 4.8 | 0.00 | 0.00 | 0.00 | 24 | 1013.7 |
| 20260502045519 | 22 | 284 | 1.6 | 4.8 | 0.00 | 0.00 | 0.00 | 24 | 1013.8 |
| 20260502045014 | 22 | 284 | 1.6 | 4.8 | 0.00 | 0.00 | 0.00 | 24 | 1013.7 |
| 20260502044530 | 22 | 284 | 3.2 | 4.8 | 0.00 | 0.00 | 0.00 | 24 | 1013.5 |
| 20260502044025 | 22 | 284 | 3.2 | 6.4 | 0.00 | 0.00 | 0.00 | 24 | 1013.5 |
| 20260502043520 | 23 | 284 | 4.8 | 9.7 | 0.00 | 0.00 | 0.00 | 23 | 1013.5 |
| 20260502043019 | 23 | 284 | 3.2 | 9.7 | 0.00 | 0.00 | 0.00 | 23 | 1013.4 |
| 20260502042515 | 23 | 285 | 4.8 | 9.7 | 0.00 | 0.00 | 0.00 | 23 | 1013.4 |
| 20260502042031 | 23 | 285 | 4.8 | 9.7 | 0.00 | 0.00 | 0.00 | 23 | 1013.4 |
| 20260502041526 | 23 | 285 | 4.8 | 11.3 | 0.00 | 0.00 | 0.00 | 23 | 1013.3 |
| 20260502041022 | 23 | 283 | 4.8 | 11.3 | 0.00 | 0.00 | 0.00 | 23 | 1013.3 |
| 20260502040518 | 24 | 287 | 4.8 | 9.7 | 0.00 | 0.00 | 0.00 | 23 | 1013.1 |
| 20260502040012 | 24 | 287 | 4.8 | 6.4 | 0.00 | 0.00 | 0.00 | 23 | 1013.0 |
| 20260502035512 | 24 | 287 | 3.2 | 6.4 | 0.00 | 0.00 | 0.00 | 23 | 1013.0 |
| 20260502035028 | 24 | 287 | 4.8 | 9.7 | 0.00 | 0.00 | 0.00 | 23 | 1012.9 |
| 20260502034523 | 24 | 283 | 4.8 | 6.4 | 0.00 | 0.00 | 0.00 | 23 | 1012.9 |
| 20260502034019 | 24 | 283 | 3.2 | 9.7 | 0.00 | 0.00 | 0.00 | 22 | 1012.8 |
| 20260502033516 | 24 | 324 | 4.8 | 8.0 | 0.00 | 0.00 | 0.00 | 23 | 1012.8 |
| 20260502033031 | 23 | 327 | 4.8 | 8.0 | 0.00 | 0.00 | 0.00 | 23 | 1012.7 |
| 20260502032525 | 23 | 327 | 3.2 | 8.0 | 0.00 | 0.00 | 0.00 | 23 | 1012.5 |
| 20260502032020 | 24 | 327 | 3.2 | 6.4 | 0.00 | 0.00 | 0.00 | 23 | 1012.5 |
| 20260502031520 | 24 | 327 | 3.2 | 8.0 | 0.00 | 0.00 | 0.00 | 22 | 1012.5 |
| 20260502031015 | 25 | 327 | 4.8 | 8.0 | 0.00 | 0.00 | 0.00 | 22 | 1012.3 |
| 20260502030531 | 25 | 329 | 3.2 | 6.4 | 0.00 | 0.00 | 0.00 | 22 | 1012.2 |
| 20260502030026 | 25 | 329 | 3.2 | 6.4 | 0.00 | 0.00 | 0.00 | 22 | 1012.1 |
| 20260502025522 | 25 | 329 | 3.2 | 4.8 | 0.00 | 0.00 | 0.00 | 21 | 1012.0 |
| 20260502025017 | 25 | 329 | 1.6 | 8.0 | 0.00 | 0.00 | 0.00 | 21 | 1012.0 |
| 20260502024513 | 25 | 329 | 1.6 | 8.0 | 0.00 | 0.00 | 0.00 | 21 | 1012.0 |
| 20260502024013 | 25 | 329 | 1.6 | 4.8 | 0.00 | 0.00 | 0.00 | 21 | 1011.8 |
| 20260502023529 | 25 | 329 | 0.0 | 3.2 | 0.00 | 0.00 | 0.00 | 21 | 1011.8 |
| 20260502023024 | 26 | 329 | 1.6 | 3.2 | 0.00 | 0.00 | 0.00 | 21 | 1011.8 |
| 20260502022520 | 26 | 329 | 0.0 | 1.6 | 0.00 | 0.00 | 0.00 | 21 | 1011.7 |
| 20260502022016 | 26 | 329 | 0.0 | 8.0 | 0.00 | 0.00 | 0.00 | 21 | 1011.6 |
| 20260502021512 | 26 | 329 | 1.6 | 8.0 | 0.00 | 0.00 | 0.00 | 20 | 1011.6 |
| 20260502021028 | 26 | 329 | 0.0 | 4.8 | 0.00 | 0.00 | 0.00 | 20 | 1011.6 |
| 20260502020528 | 26 | 329 | 1.6 | 14.5 | 0.00 | 0.00 | 0.00 | 19 | 1011.5 |
| 20260502020023 | 27 | 330 | 3.2 | 14.5 | 0.00 | 0.00 | 0.00 | 18 | 1011.5 |
| 20260502015519 | 27 | 287 | 4.8 | 12.9 | 0.00 | 0.00 | 0.00 | 18 | 1011.3 |
| 20260502015014 | 27 | 294 | 3.2 | 11.3 | 0.00 | 0.00 | 0.00 | 17 | 1011.3 |
| 20260502014530 | 27 | 293 | 1.6 | 6.4 | 0.00 | 0.00 | 0.00 | 17 | 1011.3 |
| 20260502014026 | 27 | 293 | 0.0 | 11.3 | 0.00 | 0.00 | 0.00 | 17 | 1011.2 |
| 20260502013522 | 27 | 292 | 3.2 | 12.9 | 0.00 | 0.00 | 0.00 | 17 | 1011.2 |
| 20260502013021 | 27 | 291 | 3.2 | 12.9 | 0.00 | 0.00 | 0.00 | 16 | 1011.1 |
| 20260502012517 | 28 | 267 | 8.0 | 12.9 | 0.00 | 0.00 | 0.00 | 16 | 1011.2 |
| 20260502012013 | 28 | 277 | 6.4 | 17.7 | 0.00 | 0.00 | 0.00 | 16 | 1011.1 |
| 20260502011528 | 28 | 262 | 4.8 | 17.7 | 0.00 | 0.00 | 0.00 | 16 | 1011.1 |
| 20260502011024 | 28 | 262 | 9.7 | 14.5 | 0.00 | 0.00 | 0.00 | 16 | 1011.1 |
| 20260502010520 | 28 | 310 | 4.8 | 12.9 | 0.00 | 0.00 | 0.00 | 16 | 1011.0 |
| 20260502010016 | 28 | 308 | 4.8 | 12.9 | 0.00 | 0.00 | 0.00 | 16 | 1011.0 |
| 20260502005515 | 28 | 297 | 3.2 | 16.1 | 0.00 | 0.00 | 0.00 | 16 | 1011.0 |
| 20260502005031 | 29 | 277 | 6.4 | 20.9 | 0.00 | 0.00 | 0.00 | 16 | 1010.9 |
| 20260502004527 | 29 | 281 | 6.4 | 20.9 | 0.00 | 0.00 | 0.00 | 16 | 1010.9 |
| 20260502004023 | 29 | 283 | 6.4 | 17.7 | 0.00 | 0.00 | 0.00 | 16 | 1010.9 |
| 20260502003518 | 29 | 314 | 3.2 | 16.1 | 0.00 | 0.00 | 0.00 | 16 | 1010.9 |
| 20260502003014 | 29 | 291 | 3.2 | 19.3 | 0.00 | 0.00 | 0.00 | 16 | 1010.8 |
| 20260502002530 | 29 | 276 | 9.7 | 19.3 | 0.00 | 0.00 | 0.00 | 16 | 1010.9 |
| 20260502002025 | 29 | 298 | 4.8 | 14.5 | 0.00 | 0.00 | 0.00 | 16 | 1011.0 |
| 20260502001525 | 29 | 307 | 8.0 | 14.5 | 0.00 | 0.00 | 0.00 | 16 | 1010.9 |
| 20260502001021 | 29 | 292 | 3.2 | 19.3 | 0.00 | 0.00 | 0.00 | 16 | 1011.0 |
| 20260502000517 | 30 | 285 | 6.4 | 16.1 | 0.00 | 0.00 | 0.00 | 15 | 1011.0 |
| 20260502000012 | 28 | 339 | 1.6 | 12.9 | 0.00 | 0.00 | 0.00 | 16 | 1011.0 |
| 20260501235528 | 29 | 298 | 3.2 | 12.9 | 0.00 | 0.00 | 0.00 | 16 | 1011.0 |
| 20260501235024 | 29 | 335 | 4.8 | 14.5 | 0.00 | 0.00 | 0.00 | 15 | 1011.0 |
| 20260501234519 | 30 | 286 | 6.4 | 16.1 | 0.00 | 0.00 | 0.00 | 16 | 1011.0 |
| 20260501234019 | 30 | 292 | 8.0 | 16.1 | 0.00 | 0.00 | 0.00 | 16 | 1010.9 |
| 20260501233515 | 29 | 295 | 4.8 | 14.5 | 0.00 | 0.00 | 0.00 | 16 | 1011.0 |
| 20260501233012 | 30 | 325 | 6.4 | 14.5 | 0.00 | 0.00 | 0.00 | 16 | 1011.0 |
| 20260501232528 | 30 | 322 | 4.8 | 12.9 | 0.00 | 0.00 | 0.00 | 16 | 1010.9 |
| 20260501231517 | 30 | 335 | 3.2 | 14.5 | 0.03 | 0.03 | 0.03 | 17 | 1011.0 |
| 20260501231033 | 29 | 1 | 4.8 | 9.7 | 0.00 | 0.00 | 0.00 | 17 | 1011.0 |
| 20260501230532 | 30 | 352 | 3.2 | 14.5 | 0.00 | 0.00 | 0.00 | 17 | 1011.0 |
| 20260501230027 | 30 | 278 | 6.4 | 14.5 | 0.00 | 0.00 | 0.00 | 17 | 1011.0 |
| 20260501225523 | 30 | 293 | 6.4 | 12.9 | 0.00 | 0.00 | 0.00 | 16 | 1011.1 |
| 20260501225019 | 30 | 354 | 3.2 | 12.9 | 0.00 | 0.00 | 0.00 | 16 | 1011.1 |
| 20260501224515 | 30 | 273 | 3.2 | 12.9 | 0.00 | 0.00 | 0.00 | 16 | 1011.2 |
| 20260501224031 | 30 | 332 | 6.4 | 14.5 | 0.00 | 0.00 | 0.00 | 17 | 1011.3 |
| 20260501223526 | 30 | 2 | 6.4 | 14.5 | 0.00 | 0.00 | 0.00 | 17 | 1011.3 |
| 20260501223026 | 29 | 287 | 6.4 | 16.1 | 0.00 | 0.00 | 0.00 | 17 | 1011.4 |
| 20260501222522 | 30 | 284 | 4.8 | 14.5 | 0.00 | 0.00 | 0.00 | 17 | 1011.4 |
| 20260501222018 | 30 | 346 | 4.8 | 14.5 | 0.00 | 0.00 | 0.00 | 18 | 1011.5 |
| 20260501221514 | 30 | 344 | 4.8 | 16.1 | 0.00 | 0.00 | 0.00 | 17 | 1011.5 |